Waseca, MN

6:23 PM CDT on July 24, 2017 (GMT -0500)
Waseca Municipal

Weather History for KACQ - October, 2013

Change the Weather History Date:

Monday, October 21, 2013

  Actual Average Record
Temperature  
Mean Temperature 32 °F -  
Max Temperature 41 °F 56 °F 87 °F (1947)
Min Temperature 23 °F 33 °F 7 °F (1916)
Degree Days  
Heating Degree Days 33    
Moisture  
Dew Point 26 °F    
Average Humidity 72    
Maximum Humidity 93    
Minimum Humidity 49    
Precipitation  
Precipitation 0.00 in - - ()
Sea Level Pressure  
Sea Level Pressure 29.97 in    
Wind  
Wind Speed 12 mph (WNW)    
Max Wind Speed 20 mph    
Max Gust Speed 26 mph    
Visibility 10 miles    
Events      
Averages and records for this station are not official NWS values.
T = Trace of Precipitation, MM = Missing Value Source: NWS Daily Summary

Daily Weather History Graph

Daily Weather History Graph

Search for Another Location

Airport or City:

Trip Planner

Search our weather history database for the weather conditions in past years. The results will help you decide how hot, cold, wet, or windy it might be!

Date:

Astronomy

Oct. 21, 2013 Rise Set
Actual Time 7:36 AM CDT 6:20 PM CDT
Civil Twilight 7:07 AM CDT 6:49 PM CDT
Nautical Twilight 6:33 AM CDT 7:23 PM CDT
Astronomical Twilight 6:00 AM CDT 7:56 PM CDT
Moon 8:08 PM CDT (10/21) 10:17 AM CDT (10/21)
Length of Visible Light 11h 42m
Length of Day
10h 43m
Waning Gibbous, 92% of the Moon is Illuminated
Oct 21
Waning Gibbous
Oct 26
Last Quarter
Nov 3
New
Nov 9
First Quarter
Nov 17
Full

Hourly Weather History & Observations

Time (CDT) Temp. Windchill Dew Point Humidity Pressure Visibility Wind Dir Wind Speed Gust Speed Precip Events Conditions
12:13 AM 37.4 °F 28.9 °F 33.8 °F 87% 29.92 in 10.0 mi WNW 13.8 mph 18.4 mph N/A   Overcast
12:33 AM 37.4 °F 29.3 °F 33.8 °F 87% 29.92 in 10.0 mi WNW 12.7 mph 21.9 mph N/A   Overcast
12:53 AM 37.4 °F 27.8 °F 33.8 °F 87% 29.93 in 7.0 mi West 17.3 mph 23.0 mph N/A   Overcast
1:13 AM 37.4 °F 28.2 °F 33.8 °F 87% 29.93 in 10.0 mi WNW 16.1 mph - N/A   Overcast
1:33 AM 35.6 °F 26.2 °F 32.0 °F 87% 29.94 in 10.0 mi WNW 15.0 mph 18.4 mph N/A   Overcast
1:53 AM 35.6 °F 27.5 °F 30.2 °F 81% 29.94 in 10.0 mi WNW 11.5 mph - N/A   Overcast
2:13 AM 35.6 °F 27.5 °F 30.2 °F 81% 29.95 in 10.0 mi WNW 11.5 mph - N/A   Overcast
2:33 AM 35.6 °F 28.0 °F 30.2 °F 81% 29.95 in 10.0 mi WNW 10.4 mph 19.6 mph N/A   Overcast
2:53 AM 35.6 °F 28.0 °F 28.4 °F 75% 29.96 in 10.0 mi WNW 10.4 mph - N/A   Overcast
3:13 AM 35.6 °F 27.1 °F 28.4 °F 75% 29.96 in 10.0 mi WNW 12.7 mph - N/A   Overcast
3:33 AM 35.6 °F 27.5 °F 28.4 °F 75% 29.96 in 10.0 mi WNW 11.5 mph 16.1 mph N/A   Overcast
3:53 AM 35.6 °F 27.1 °F 26.6 °F 70% 29.96 in 10.0 mi West 12.7 mph - N/A   Overcast
4:13 AM 35.6 °F 26.2 °F 26.6 °F 70% 29.96 in 10.0 mi WNW 15.0 mph - N/A   Overcast
4:33 AM 35.6 °F 27.1 °F 26.6 °F 70% 29.96 in 10.0 mi WNW 12.7 mph 19.6 mph N/A   Overcast
4:53 AM 35.6 °F 27.1 °F 26.6 °F 70% 29.96 in 10.0 mi WNW 12.7 mph 17.3 mph N/A   Overcast
5:13 AM 33.8 °F 23.9 °F 23.0 °F 65% 29.96 in 10.0 mi NW 15.0 mph 21.9 mph N/A   Overcast
5:33 AM 33.8 °F 25.3 °F 23.0 °F 65% 29.96 in 10.0 mi WNW 11.5 mph 24.2 mph N/A   Mostly Cloudy
5:53 AM 33.8 °F 25.8 °F 24.8 °F 70% 29.97 in 10.0 mi West 10.4 mph - N/A   Scattered Clouds
6:13 AM 33.8 °F 25.8 °F 26.6 °F 75% 29.97 in 10.0 mi West 10.4 mph - N/A   Clear
6:33 AM 33.8 °F 26.4 °F 26.6 °F 75% 29.97 in 10.0 mi West 9.2 mph - N/A   Scattered Clouds
6:53 AM 33.8 °F 25.8 °F 28.4 °F 81% 29.98 in 10.0 mi West 10.4 mph - N/A   Scattered Clouds
7:13 AM 32.0 °F 24.8 °F 26.6 °F 80% 29.98 in 10.0 mi West 8.1 mph - N/A   Clear
7:33 AM 32.0 °F 24.8 °F 26.6 °F 80% 29.98 in 10.0 mi West 8.1 mph - N/A   Clear
7:53 AM 32.0 °F 25.6 °F 26.6 °F 80% 29.99 in 10.0 mi West 6.9 mph - N/A   Clear
8:13 AM 32.0 °F 24.8 °F 30.2 °F 93% 29.99 in 10.0 mi West 8.1 mph - N/A   Mostly Cloudy
8:33 AM 33.8 °F 26.4 °F 28.4 °F 81% 30.00 in 10.0 mi West 9.2 mph - N/A   Overcast
8:53 AM 33.8 °F 25.8 °F 28.4 °F 81% 30.00 in 10.0 mi WNW 10.4 mph - N/A   Overcast
9:14 AM 33.8 °F 24.8 °F 28.4 °F 81% 30.00 in 10.0 mi West 12.7 mph 17.3 mph N/A   Overcast
9:33 AM 35.6 °F 26.6 °F 28.4 °F 75% 30.00 in 10.0 mi WNW 13.8 mph 17.3 mph N/A   Overcast
9:53 AM 35.6 °F 26.2 °F 26.6 °F 70% 30.00 in 10.0 mi West 15.0 mph - N/A   Overcast
10:14 AM 35.6 °F 25.5 °F 26.6 °F 70% 30.00 in 10.0 mi West 17.3 mph 23.0 mph N/A   Overcast
10:33 AM 37.4 °F 28.2 °F 26.6 °F 65% 30.00 in 10.0 mi West 16.1 mph 23.0 mph N/A   Overcast
10:53 AM 37.4 °F 28.9 °F 26.6 °F 65% 30.00 in 10.0 mi West 13.8 mph 21.9 mph N/A   Overcast
11:13 AM 37.4 °F 28.9 °F 28.4 °F 70% 29.99 in 10.0 mi WNW 13.8 mph - N/A   Overcast
11:33 AM 37.4 °F 27.5 °F 26.6 °F 65% 30.00 in 10.0 mi West 18.4 mph 24.2 mph N/A   Overcast
11:53 AM 37.4 °F 28.9 °F 26.6 °F 65% 29.99 in 10.0 mi WNW 13.8 mph - N/A   Overcast
12:14 PM 37.4 °F 28.2 °F 26.6 °F 65% 29.99 in 10.0 mi WNW 16.1 mph 21.9 mph N/A   Overcast
12:34 PM 39.2 °F 30.8 °F 26.6 °F 61% 29.98 in 10.0 mi West 15.0 mph 19.6 mph N/A   Overcast
12:53 PM 37.4 °F 29.3 °F 26.6 °F 65% 29.98 in 10.0 mi West 12.7 mph - N/A   Overcast
1:13 PM 37.4 °F 29.3 °F 26.6 °F 65% 29.98 in 10.0 mi West 12.7 mph 19.6 mph N/A   Overcast
1:33 PM 37.4 °F 27.8 °F 26.6 °F 65% 29.97 in 10.0 mi West 17.3 mph 23.0 mph N/A   Overcast
1:53 PM 37.4 °F 28.9 °F 26.6 °F 65% 29.96 in 10.0 mi WNW 13.8 mph 20.7 mph N/A   Overcast
2:13 PM 37.4 °F 28.2 °F 24.8 °F 60% 29.96 in 10.0 mi WNW 16.1 mph 24.2 mph N/A   Overcast
2:34 PM 39.2 °F 30.2 °F 26.6 °F 61% 29.96 in 10.0 mi NW 17.3 mph - N/A   Overcast
2:53 PM 37.4 °F 27.8 °F 24.8 °F 60% 29.96 in 10.0 mi WNW 17.3 mph 23.0 mph N/A   Overcast
3:13 PM 41.0 °F 33.1 °F 26.6 °F 57% 29.96 in 10.0 mi West 15.0 mph 23.0 mph N/A   Mostly Cloudy
3:33 PM 39.2 °F 30.8 °F 24.8 °F 56% 29.96 in 10.0 mi NW 15.0 mph 23.0 mph N/A   Mostly Cloudy
3:53 PM 41.0 °F 31.9 °F 26.6 °F 57% 29.97 in 10.0 mi West 19.6 mph 24.2 mph N/A   Scattered Clouds
4:13 PM 41.0 °F 32.5 °F 23.0 °F 49% 29.97 in 10.0 mi WNW 17.3 mph 24.2 mph N/A   Clear
4:34 PM 41.0 °F 31.9 °F 23.0 °F 49% 29.97 in 10.0 mi West 19.6 mph 26.5 mph N/A   Clear
4:54 PM 41.0 °F 32.8 °F 24.8 °F 53% 29.97 in 10.0 mi WNW 16.1 mph - N/A   Scattered Clouds
5:13 PM 41.0 °F 33.1 °F 24.8 °F 53% 29.97 in 10.0 mi WNW 15.0 mph - N/A   Clear
5:33 PM 41.0 °F 34.7 °F 26.6 °F 57% 29.97 in 10.0 mi WNW 10.4 mph - N/A   Clear
5:54 PM 37.4 °F 30.3 °F 23.0 °F 56% 29.97 in 10.0 mi WNW 10.4 mph - N/A   Clear
6:13 PM 37.4 °F 30.8 °F 24.8 °F 60% 29.97 in 10.0 mi WNW 9.2 mph - N/A   Clear
6:33 PM 35.6 °F 30.7 °F 24.8 °F 65% 29.97 in 10.0 mi WNW 5.8 mph - N/A   Clear
6:53 PM 33.8 °F 29.6 °F 24.8 °F 70% 29.97 in 10.0 mi NW 4.6 mph - N/A   Clear
7:13 PM 33.8 °F 30.8 °F 24.8 °F 70% 29.97 in 10.0 mi WNW 3.5 mph - N/A   Clear
7:34 PM 32.0 °F - 23.0 °F 69% 29.97 in 10.0 mi Calm Calm - N/A   Clear
7:53 PM 32.0 °F 28.7 °F 23.0 °F 69% 29.97 in 10.0 mi SSW 3.5 mph - N/A   Clear
8:13 PM 30.2 °F - 23.0 °F 75% 29.98 in 10.0 mi Calm Calm - N/A   Clear
8:34 PM 32.0 °F - 26.6 °F 80% 29.97 in 10.0 mi Calm Calm - N/A   Clear
8:54 PM 28.4 °F - 23.0 °F 80% 29.97 in 10.0 mi Calm Calm - N/A   Clear
9:14 PM 30.2 °F - 24.8 °F 80% 29.97 in 10.0 mi Calm Calm - N/A   Clear
9:34 PM 28.4 °F - 24.8 °F 86% 29.97 in 10.0 mi Calm Calm - N/A   Clear
9:54 PM 28.4 °F - 23.0 °F 80% 29.97 in 10.0 mi Calm Calm - N/A   Clear
10:13 PM 26.6 °F - 21.2 °F 80% 29.97 in 10.0 mi Calm Calm - N/A   Clear
10:34 PM 26.6 °F - 23.0 °F 86% 29.97 in 10.0 mi Calm Calm - N/A   Clear
10:53 PM 26.6 °F - 23.0 °F 86% 29.97 in 10.0 mi Calm Calm - N/A   Clear
11:13 PM 23.0 °F 18.4 °F 21.2 °F 93% 29.97 in 10.0 mi SSW 3.5 mph - N/A   Clear
11:33 PM 24.8 °F 20.5 °F 23.0 °F 93% 29.98 in 10.0 mi SSW 3.5 mph - N/A   Clear
11:53 PM 26.6 °F - 23.0 °F 86% 29.98 in 10.0 mi Calm Calm - N/A   Clear